TimeCDT,TemperatureF,Dew PointF,Humidity,Sea Level PressureIn,VisibilityMPH,Wind Direction,Wind SpeedMPH,Gust SpeedMPH,PrecipitationIn,Events,Conditions,WindDirDegrees,DateUTC
12:24 AM,55.4,53.6,94,29.71,5.0,SW,11.5,-,0.07,Rain,Rain,220,2013-04-08 05:24:00
12:53 AM,55.0,53.1,93,29.71,5.0,WSW,17.3,23.0,0.18,Rain,Rain,240,2013-04-08 05:53:00
1:09 AM,55.4,53.6,94,29.72,5.0,WSW,19.6,25.3,0.07,Rain,Rain,240,2013-04-08 06:09:00
1:53 AM,54.0,52.0,93,29.64,9.0,WNW,8.1,-,0.25,Rain,Light Rain,300,2013-04-08 06:53:00
2:39 AM,51.8,51.8,100,29.63,1.8,WSW,5.8,-,0.01,,Overcast,250,2013-04-08 07:39:00
2:49 AM,51.8,51.8,100,29.64,3.0,West,6.9,-,0.01,,Overcast,280,2013-04-08 07:49:00
2:53 AM,53.1,51.1,93,29.63,8.0,West,8.1,-,0.01,,Overcast,280,2013-04-08 07:53:00
3:53 AM,51.1,50.0,96,29.62,10.0,WSW,3.5,-,N/A,,Clear,240,2013-04-08 08:53:00
4:25 AM,50.0,48.2,94,29.64,1.8,SW,4.6,-,N/A,,Clear,220,2013-04-08 09:25:00
4:34 AM,50.0,48.2,94,29.63,0.5,SSW,4.6,-,N/A,Fog,Fog,210,2013-04-08 09:34:00
4:53 AM,48.9,48.0,97,29.64,0.2,SSW,9.2,-,N/A,Fog,Fog,200,2013-04-08 09:53:00
6:53 AM,48.0,48.0,100,29.67,1.0,SW,4.6,-,N/A,,Mist,220,2013-04-08 11:53:00
7:03 AM,48.2,46.4,93,29.68,3.0,SW,3.5,-,N/A,,Mostly Cloudy,220,2013-04-08 12:03:00
7:11 AM,48.2,46.4,93,29.68,4.0,Calm,Calm,-,N/A,,Scattered Clouds,0,2013-04-08 12:11:00
7:16 AM,48.2,46.4,93,29.68,1.0,Calm,Calm,-,N/A,,Mist,0,2013-04-08 12:16:00
7:23 AM,48.2,46.4,93,29.69,0.2,South,3.5,-,N/A,Fog,Fog,170,2013-04-08 12:23:00
7:53 AM,48.9,46.9,93,29.70,0.2,Calm,Calm,-,N/A,Fog,Fog,0,2013-04-08 12:53:00
8:25 AM,50.0,48.2,94,29.72,2.0,Calm,Calm,-,N/A,,Overcast,0,2013-04-08 13:25:00
8:45 AM,51.8,48.2,88,29.72,5.0,SE,4.6,-,N/A,,Overcast,130,2013-04-08 13:45:00
8:53 AM,51.1,50.0,96,29.72,7.0,Calm,Calm,-,N/A,,Overcast,0,2013-04-08 13:53:00
9:53 AM,54.0,53.1,97,29.73,8.0,East,3.5,-,N/A,,Mostly Cloudy,90,2013-04-08 14:53:00
10:01 AM,55.4,53.6,94,29.73,9.0,NE,3.5,-,N/A,,Mostly Cloudy,50,2013-04-08 15:01:00
10:53 AM,57.9,55.0,90,29.75,10.0,Calm,Calm,-,N/A,,Overcast,0,2013-04-08 15:53:00
11:21 AM,59.0,55.4,88,29.76,10.0,SSE,4.6,-,N/A,,Overcast,160,2013-04-08 16:21:00
11:53 AM,61.0,55.9,83,29.76,10.0,SE,3.5,-,N/A,,Overcast,140,2013-04-08 16:53:00
12:41 PM,64.4,55.4,73,29.74,10.0,Calm,Calm,-,N/A,,Mostly Cloudy,0,2013-04-08 17:41:00
12:49 PM,64.4,57.2,77,29.74,10.0,NE,3.5,-,N/A,,Mostly Cloudy,40,2013-04-08 17:49:00
12:53 PM,64.9,55.9,73,29.74,10.0,Calm,Calm,-,N/A,,Mostly Cloudy,0,2013-04-08 17:53:00
1:53 PM,66.9,57.0,70,29.73,10.0,SSE,5.8,-,N/A,,Mostly Cloudy,150,2013-04-08 18:53:00
2:17 PM,66.2,57.2,73,29.73,10.0,South,5.8,-,N/A,,Mostly Cloudy,190,2013-04-08 19:17:00
2:53 PM,68.0,57.9,70,29.73,10.0,South,11.5,-,N/A,,Overcast,180,2013-04-08 19:53:00
3:53 PM,70.0,57.9,65,29.72,10.0,SSW,6.9,-,N/A,,Scattered Clouds,200,2013-04-08 20:53:00
4:53 PM,69.1,57.9,68,29.72,10.0,SSE,6.9,-,N/A,,Partly Cloudy,150,2013-04-08 21:53:00
5:53 PM,68.0,57.9,70,29.73,10.0,SSE,9.2,-,N/A,,Overcast,150,2013-04-08 22:53:00
6:53 PM,66.9,59.0,76,29.74,10.0,SE,4.6,-,N/A,,Overcast,130,2013-04-08 23:53:00
7:53 PM,66.0,57.9,75,29.75,10.0,East,6.9,-,N/A,,Overcast,100,2013-04-09 00:53:00
8:53 PM,64.9,57.9,78,29.75,10.0,East,9.2,-,N/A,,Mostly Cloudy,100,2013-04-09 01:53:00
9:53 PM,64.9,57.9,78,29.76,10.0,East,9.2,-,N/A,,Overcast,90,2013-04-09 02:53:00
10:20 PM,64.4,57.2,77,29.78,10.0,East,8.1,-,N/A,,Mostly Cloudy,90,2013-04-09 03:20:00
10:41 PM,64.4,57.2,77,29.76,9.0,East,9.2,-,0.00,Rain-Thunderstorm,Light Rain,90,2013-04-09 03:41:00
10:53 PM,64.0,59.0,84,29.75,7.0,East,12.7,18.4,0.02,Rain-Thunderstorm,Thunderstorms and Rain,90,2013-04-09 03:53:00
11:53 PM,64.0,57.9,80,29.73,10.0,SE,10.4,-,0.01,Thunderstorm,Overcast,130,2013-04-09 04:53:00